Le nostre stazioni meteo in Italia

Pubblicità
Il mio iltempo24.it
Arezzo, Italia (16172): Temperatura & dewpoint: 17.07.2019 06:00:00 - 23.07.2019 06:00:00 (CEST)Arezzo, Italia (16172): velocità del vento: 17.07.2019 06:00:00 - 23.07.2019 06:00:00 (CEST)Arezzo, Italia (16172): direzione del vento: 17.07.2019 06:00:00 - 23.07.2019 06:00:00 (CEST)Arezzo, Italia (16172): reduced air pressure: 17.07.2019 06:00:00 - 23.07.2019 06:00:00 (CEST)Arezzo, Italia (16172): visibility: 17.07.2019 06:00:00 - 23.07.2019 06:00:00 (CEST)
Data & Tempo tt [°C] td [°C] ff [km/h] ff [kn] dd ppp [hPa] vv [km]
23.07.2019 06:00:00 - - - - - - -
23.07.2019 05:00:00 - - - - - - -
23.07.2019 04:00:00 - - - - - - -
23.07.2019 03:00:00 - - - - - - -
23.07.2019 02:00:00 - - - - - - -
23.07.2019 01:00:00 - - - - - - -
23.07.2019 00:00:00 - - - - - - -
22.07.2019 23:00:00 - - - - - - -
22.07.2019 22:00:00 - - - - - - -
22.07.2019 21:00:00 - - - - - - -
22.07.2019 20:00:00 31,0 20,0 13 7 E 1018,0 20
22.07.2019 19:00:00 - - - - - - -
22.07.2019 18:00:00 - - - - - - -
22.07.2019 17:00:00 33,4 17,2 11 6 E 1018,5 20
22.07.2019 16:00:00 - - - - - - -
22.07.2019 15:00:00 - - - - - - -
22.07.2019 14:00:00 32,8 16,6 8 4 NNO 1019,8 20
22.07.2019 13:00:00 - - - - - - -
22.07.2019 12:00:00 - - - - - - -
22.07.2019 11:00:00 27,8 16,7 4 2 ONO 1020,9 20
22.07.2019 10:00:00 - - - - - - -
22.07.2019 09:00:00 - - - - - - -
22.07.2019 08:00:00 19,4 16,3 0 0 N 1021,3 18
22.07.2019 07:00:00 - - - - - - -
22.07.2019 06:00:00 - - - - - - -
22.07.2019 05:00:00 - - - - - - -
22.07.2019 04:00:00 - - - - - - -
22.07.2019 03:00:00 - - - - - - -
22.07.2019 02:00:00 - - - - - - -
22.07.2019 01:00:00 - - - - - - -
22.07.2019 00:00:00 - - - - - - -
21.07.2019 23:00:00 - - - - - - -
21.07.2019 22:00:00 - - - - - - -
21.07.2019 21:00:00 - - - - - - -
21.07.2019 20:00:00 30,6 18,7 15 8 ONO 1017,3 20
21.07.2019 19:00:00 - - - - - - -
21.07.2019 18:00:00 - - - - - - -
21.07.2019 17:00:00 33,2 15,2 11 6 O 1017,5 20
21.07.2019 16:00:00 - - - - - - -
21.07.2019 15:00:00 - - - - - - -
21.07.2019 14:00:00 31,6 17,1 5 3 NNO 1018,9 20
21.07.2019 13:00:00 - - - - - - -
21.07.2019 12:00:00 - - - - - - -
21.07.2019 11:00:00 28,0 16,6 0 0 N 1019,6 20
21.07.2019 10:00:00 - - - - - - -
21.07.2019 09:00:00 - - - - - - -
21.07.2019 08:00:00 19,4 16,3 0 0 N 1020,3 18
21.07.2019 07:00:00 - - - - - - -
21.07.2019 06:00:00 - - - - - - -
21.07.2019 05:00:00 - - - - - - -
21.07.2019 04:00:00 - - - - - - -
21.07.2019 03:00:00 - - - - - - -
21.07.2019 02:00:00 - - - - - - -
21.07.2019 01:00:00 - - - - - - -
21.07.2019 00:00:00 - - - - - - -
20.07.2019 23:00:00 - - - - - - -
20.07.2019 22:00:00 - - - - - - -
20.07.2019 21:00:00 - - - - - - -
20.07.2019 20:00:00 29,6 15,3 16 9 O 1016,1 18
20.07.2019 19:00:00 - - - - - - -
20.07.2019 18:00:00 - - - - - - -
20.07.2019 17:00:00 32,0 14,2 11 6 NO 1016,0 20
20.07.2019 16:00:00 - - - - - - -
20.07.2019 15:00:00 - - - - - - -
20.07.2019 14:00:00 32,0 15,9 5 3 SO 1016,8 20
20.07.2019 13:00:00 - - - - - - -
20.07.2019 12:00:00 - - - - - - -
20.07.2019 11:00:00 27,0 16,3 5 3 NE 1017,7 18
20.07.2019 10:00:00 - - - - - - -
20.07.2019 09:00:00 - - - - - - -
20.07.2019 08:00:00 20,0 17,2 0 0 N 1018,0 16
20.07.2019 07:00:00 - - - - - - -
20.07.2019 06:00:00 - - - - - - -
20.07.2019 05:00:00 - - - - - - -
20.07.2019 04:00:00 - - - - - - -
20.07.2019 03:00:00 - - - - - - -
20.07.2019 02:00:00 - - - - - - -
20.07.2019 01:00:00 - - - - - - -
20.07.2019 00:00:00 - - - - - - -
19.07.2019 23:00:00 - - - - - - -
19.07.2019 22:00:00 - - - - - - -
19.07.2019 21:00:00 - - - - - - -
19.07.2019 20:00:00 28,4 12,7 18 10 O 1013,5 18
19.07.2019 19:00:00 - - - - - - -
19.07.2019 18:00:00 - - - - - - -
19.07.2019 17:00:00 30,4 12,8 11 6 ONO 1013,8 20
19.07.2019 16:00:00 - - - - - - -
19.07.2019 15:00:00 - - - - - - -
19.07.2019 14:00:00 29,0 12,4 5 3 NNO 1014,8 20
19.07.2019 13:00:00 - - - - - - -
19.07.2019 12:00:00 - - - - - - -
19.07.2019 11:00:00 27,0 15,7 5 3 SSE 1015,2 18
19.07.2019 10:00:00 - - - - - - -
19.07.2019 09:00:00 - - - - - - -
19.07.2019 08:00:00 18,4 15,3 0 0 N 1015,5 12
19.07.2019 07:00:00 - - - - - - -
19.07.2019 06:00:00 - - - - - - -
19.07.2019 05:00:00 - - - - - - -
19.07.2019 04:00:00 - - - - - - -
19.07.2019 03:00:00 - - - - - - -
19.07.2019 02:00:00 - - - - - - -
19.07.2019 01:00:00 - - - - - - -
19.07.2019 00:00:00 - - - - - - -
18.07.2019 23:00:00 - - - - - - -
18.07.2019 22:00:00 - - - - - - -
18.07.2019 21:00:00 - - - - - - -
18.07.2019 20:00:00 27,0 15,7 5 3 ENE 1010,8 11
18.07.2019 19:00:00 - - - - - - -
18.07.2019 18:00:00 - - - - - - -
18.07.2019 17:00:00 29,0 12,9 9 5 ONO 1010,0 18
18.07.2019 16:00:00 - - - - - - -
18.07.2019 15:00:00 - - - - - - -
18.07.2019 14:00:00 29,8 13,1 8 4 NO 1010,8 18
18.07.2019 13:00:00 - - - - - - -
18.07.2019 12:00:00 - - - - - - -
18.07.2019 11:00:00 26,4 10,6 0 0 N 1011,5 18
18.07.2019 10:00:00 - - - - - - -
18.07.2019 09:00:00 - - - - - - -
18.07.2019 08:00:00 17,0 13,7 0 0 N 1012,3 16
18.07.2019 07:00:00 - - - - - - -
18.07.2019 06:00:00 - - - - - - -
18.07.2019 05:00:00 - - - - - - -
18.07.2019 04:00:00 - - - - - - -
18.07.2019 03:00:00 - - - - - - -
18.07.2019 02:00:00 - - - - - - -
18.07.2019 01:00:00 - - - - - - -
18.07.2019 00:00:00 - - - - - - -
17.07.2019 23:00:00 - - - - - - -
17.07.2019 22:00:00 - - - - - - -
17.07.2019 21:00:00 - - - - - - -
17.07.2019 20:00:00 28,4 9,7 0 0 N 1009,9 18
17.07.2019 19:00:00 - - - - - - -
17.07.2019 18:00:00 - - - - - - -
17.07.2019 17:00:00 29,0 8,1 5 3 ESE 1010,8 20
17.07.2019 16:00:00 - - - - - - -
17.07.2019 15:00:00 - - - - - - -
17.07.2019 14:00:00 29,0 9,7 11 6 O 1012,2 18
17.07.2019 13:00:00 - - - - - - -
17.07.2019 12:00:00 - - - - - - -
17.07.2019 11:00:00 25,4 10,8 0 0 N 1013,2 18
17.07.2019 10:00:00 - - - - - - -
17.07.2019 09:00:00 - - - - - - -
17.07.2019 08:00:00 16,0 12,6 0 0 N 1014,2 16
17.07.2019 07:00:00 - - - - - - -
17.07.2019 06:00:00 - - - - - - -

tt = Temperatura
td = dewpoint
ff = velocità del vento
dd = direzione del vento
ppp = reduced air pressure
vv = visibility

Stazioni seguenti

WeatherPro
AMSI
MeteoEarth